This is the latest recevied weather packets stored in our database for station/object DM4XI-13. If no packets are shown the sender has not sent any weather packets the latest 1 day(s).
| Time | Temp. | Humidity | Pressure | Rain* | Wind** | Luminosity | Snow |
|---|---|---|---|---|---|---|---|
| 1778046879 | 11.67° C | 89% | 1005.6 hPa | 0 mm | 0.45 m/s, 182° | 84 W/m² | - |
| 1778046757 | 11.67° C | 90% | 1005.5 hPa | 0 mm | 0.89 m/s, 181° | 85 W/m² | - |
| 1778046696 | 11.67° C | 90% | 1005.5 hPa | 0 mm | 0.45 m/s, 181° | 86 W/m² | - |
| 1778046635 | 11.67° C | 90% | 1005.4 hPa | 0 mm | 0.89 m/s, 159° | 87 W/m² | - |
| 1778046574 | 11.67° C | 90% | 1005.4 hPa | 0 mm | 0 m/s | 87 W/m² | - |
| 1778046513 | 11.67° C | 90% | 1005.4 hPa | 0 mm | 0.45 m/s, 181° | 86 W/m² | - |
| 1778046391 | 11.67° C | 90% | 1005.3 hPa | 0 mm | 0.45 m/s, 182° | 86 W/m² | - |
| 1778046330 | 11.67° C | 89% | 1005.1 hPa | 0 mm | 0.45 m/s, 183° | 85 W/m² | - |
| 1778046269 | 11.67° C | 89% | 1005.2 hPa | 0 mm | 0.45 m/s, 184° | 85 W/m² | - |
| 1778046208 | 11.67° C | 89% | 1005.2 hPa | 0 mm | 0.89 m/s, 187° | 85 W/m² | - |
| 1778046086 | 11.67° C | 89% | 1005.1 hPa | 0 mm | 0.45 m/s, 177° | 86 W/m² | - |
| 1778046025 | 12.22° C | 88% | 1005.2 hPa | 0 mm | 0.45 m/s, 185° | 87 W/m² | - |
| 1778045964 | 12.22° C | 88% | 1005.3 hPa | 0 mm | 0.45 m/s, 186° | 86 W/m² | - |
| 1778045903 | 12.22° C | 88% | 1005.1 hPa | 0 mm | 0.45 m/s, 197° | 85 W/m² | - |
| 1778045842 | 12.22° C | 88% | 1005.1 hPa | 0 mm | 0.45 m/s, 188° | 84 W/m² | - |
| 1778045781 | 12.22° C | 88% | 1005.2 hPa | 0 mm | 0.89 m/s, 157° | 83 W/m² | - |
| 1778045720 | 12.22° C | 88% | 1005.3 hPa | 0 mm | 0.45 m/s, 178° | 83 W/m² | - |
| 1778045659 | 12.22° C | 88% | 1005.2 hPa | 0 mm | 0 m/s | 83 W/m² | - |
| 1778045598 | 12.22° C | 87% | 1005.3 hPa | 0 mm | 0.45 m/s, 176° | 84 W/m² | - |
| 1778045537 | 12.22° C | 88% | 1005.2 hPa | 0 mm | 0.45 m/s, 189° | 85 W/m² | - |
| 1778045476 | 12.22° C | 87% | 1005.3 hPa | 0 mm | 0.45 m/s, 185° | 84 W/m² | - |
| 1778045412 | 12.22° C | 87% | 1005.1 hPa | 0 mm | 0.45 m/s, 181° | 85 W/m² | - |
| 1778045351 | 12.78° C | 87% | 1005.2 hPa | 0 mm | 0 m/s | 86 W/m² | - |
| 1778045290 | 12.78° C | 86% | 1005.1 hPa | 0 mm | 1.34 m/s, 187° | 84 W/m² | - |
| 1778045229 | 12.78° C | 86% | 1005.3 hPa | 0 mm | 0.89 m/s, 184° | 84 W/m² | - |
* Rain latest hour (hover to see other rain measurements)
** Current wind speed in m/s (hover to see current wind gust speed)